sat.trackr.live / text

‹ back to catalog

STARLINK-30310

NORAD 57733 · 2023-131B

PAYLOAD ACTIVE UNKNOWN

§ Identity

Operator
Country
US
Launch date
2023-09-01
Launch site
AFETR
Launch vehicle
Mass (kg)
RCS (m²)

Purposes: comms

External: N2YO · Heavens-Above · Gunter

§ Orbital elements

Epoch: 2026-09-20T23:19:54.250752Z

Period
94.27 min
Inclination
43.0019°
Eccentricity
0.0001463
Mean motion
15.27576179 rev/d
Perigee alt
482.1 km
Apogee alt
484.1 km
Semi-major
6,861.2 km
B*
2.9896e-5
RAAN
157.1560°
Arg perigee
257.3507°
Mean anomaly
102.7181°
Rev number
16,970

§ Raw data

STARLINK-303101 57733U 23131B   26263.97215568  .00000560  00000+0  29896-4 0  99952 57733  43.0019 157.1560 0001463 257.3507 102.7181 15.27576179169705

JSON: /api/v1/satellites/57733 · /tle

For live sub-satellite position, see the globe view (requires WebGL).

§ Visibility from observer

Set your observer location to see the next 7 days of passes ≥ 10°. The values pass through the URL so the page stays shareable.

No JS? Fill the form by hand. The geolocation button needs JavaScript.